Content
SEND FEEDBACK

Daily
Averages
Monthly
Summary
United States of America

DUNSMUIR, CALIFORNIA


Home > North America > United States > California
Elevation: 3289 feet     Latitude: 41 12N     Longitude: 122 16W

WEATHER
 
SELECT A DAY
Number of Records: 231,492;   Date Range: 1/1/95 - 8/30/14
 
SHARE

PRINT THIS DATA

[ ← Previous Day ]
WEATHER ALMANAC - FEBRUARY 16, 2014
[ Next Day → ]
[ °C ]   °F
Weather ElementAverageHighLow
Temperature37.5 °F48.9 °F (2:56 pm)28.9 °F (6:56 am)
Dewpoint28.6 °F32 °F (1:56 am)26.1 °F (5:56 am)
Humidity72 %89 % (6:56 am)48 % (2:56 pm)
Barometer30.18 in30.25 in (6:56 pm)29.99 in (1:56 am)
Wind Speed1.4 mph6.9 mph (3:56 pm)
Weather ElementAverage
Visibility9.4 mi
Wind DirectionNNE (30 °)

Weather ElementTotal
Precipitation---
Heating Degree Days26.1 (Base 65)
Averaged from 23 records on February 16, 2014
WEATHER CONDITIONS BREAKOUT
WIND DIRECTION BREAKOUT
WEATHER BY HOUR - FEBRUARY 16, 2014
[ °C ]   °F
Local TimeTemperatureDewpointHumidityBarometerVisibilityWind DirectionWind SpeedGust SpeedPrecipitationEventsConditions
1:56 AM37.0 °F32.0 °F82 %29.99 in10.0 miCalmOvercast
2:56 AM34.0 °F30.0 °F85 %30.01 in9.0 miNW (310°)3.5 mphPartly Cloudy
3:56 AM33.1 °F28.9 °F85 %30.04 in10.0 miCalmClear
4:56 AM32.0 °F28.0 °F85 %30.05 in10.0 miNE (50°)3.5 mphClear
5:56 AM30.0 °F26.1 °F85 %30.10 in9.0 miENE (60°)3.5 mphClear
6:56 AM28.9 °F26.1 °F89 %30.13 in8.0 miCalmClear
7:56 AM30.0 °F26.1 °F85 %30.16 in6.0 miCalmClear
8:56 AM34.0 °F30.0 °F85 %30.19 in10.0 miCalmClear
9:56 AM39.0 °F30.9 °F73 %30.20 in10.0 miCalmClear
10:56 AM43.0 °F30.0 °F60 %30.22 in10.0 miVariable4.6 mphClear
11:56 AM46.0 °F30.0 °F54 %30.22 in10.0 miVariable3.5 mphPartly Cloudy
12:56 PM46.0 °F30.0 °F54 %30.22 in10.0 miNorthMostly Cloudy
1:56 PM48.0 °F30.0 °F50 %30.21 in10.0 miSE (130°)5.8 mphScattered Clouds
2:56 PM48.9 °F30.0 °F48 %30.22 in10.0 miCalmPartly Cloudy
3:56 PM46.9 °F28.9 °F50 %30.23 in10.0 miSE (140°)6.9 mphClear
4:56 PM45.0 °F28.9 °F53 %30.24 in10.0 miCalmClear
5:56 PM42.1 °F28.9 °F60 %30.24 in10.0 miCalmClear
6:56 PM39.9 °F28.0 °F63 %30.25 in10.0 miCalmClear
7:56 PM34.0 °F28.0 °F79 %30.25 in10.0 miCalmClear
8:56 PM33.1 °F27.0 °F78 %30.25 in10.0 miCalmClear
9:56 PM32.0 °F27.0 °F82 %30.23 in9.0 miCalmClear
10:56 PM30.0 °F26.1 °F85 %30.22 in5.0 miCalmClear
11:56 PM30.0 °F26.1 °F85 %30.21 in10.0 miCalmClear
Hourly data recorded from KMHS, located miles away from Dunsmuir, California







STORIES FROM OUR PARTNERS